Regional Weather Roundup
Issued by NWS Little Rock, AR

Home | Current Version | Previous Version | Graphics & Text | Print | Product List | Glossary On
Versions: 1 2 3 4 5 6 7 8 9 10 11 12 13 14 15 16 17 18 19 20 21 22 23 24 25 26 27 28 29 30 31 32 33 34 35 36 37 38 39 40 41 42 43 44 45 46 47 48 49 50
775
ASUS44 KLZK 280205
RWRLZK

WEATHER ROUNDUP FOR ARKANSAS
NATIONAL WEATHER SERVICE LITTLE ROCK AR
900 PM CDT SAT MAY 27 2017

NOTE: "FAIR" INDICATES FEW OR NO CLOUDS BELOW 12,000 FEET WITH NO
SIGNIFICANT WEATHER AND/OR OBSTRUCTIONS TO VISIBILITY.

ARZ001-003-010-029-280300-
NORTHWEST ARKANSAS

CITY           SKY/WX    TMP DP  RH WIND       PRES   REMARKS
FAYETTEVILLE   CLOUDY    80  73  79 S14       29.74R
FORT SMITH     PTCLDY    85  71  63 SW17G29   29.74R HX  90
HARRISON       CLOUDY    68  61  78 NE17      29.81R
BENTONVILLE    CLOUDY    79  72  78 NE8       29.76R
ROGERS         CLOUDY    74  66  76 NE9       29.78R
SILOAM SPGS    CLOUDY    81  70  69 NW5       29.75R
HIGHFILL       CLOUDY    80  74  81 NW5       29.76  HX  85
SPRINGDALE     MOCLDY    81  73  78 S12G18    29.75F HX  85
$$

ARZ004-005-016-280300-
NORTH CENTRAL ARKANSAS

CITY           SKY/WX    TMP DP  RH WIND       PRES   REMARKS
BATESVILLE     CLOUDY    82  73  74 CALM      29.80R HX  88
FLIPPIN        CLOUDY    72  57  60 N12G23    29.82R
MTN HOME       CLOUDY    69  59  70 N10G22    29.83R
$$

ARZ040-041-280300-
WEST CENTRAL ARKANSAS

CITY           SKY/WX    TMP DP  RH WIND       PRES   REMARKS
MENA           CLOUDY    82  81  94 SW8       29.81R HX  95
MOUNT IDA      PTCLDY    83  73  72 MISG      29.77R HX  89
$$

ARZ009-017-025-026-028-280300-
NORTHEAST ARKANSAS

CITY           SKY/WX    TMP DP  RH WIND       PRES   REMARKS
JONESBORO      CLOUDY    72  63  73 NE15G28   29.82R
NEWPORT        CLOUDY    80  75  84 SE6       29.79R HX  85
WALNUT RIDGE   CLOUDY    70  61  73 NE15      29.84R
BLYTHEVILLE    CLOUDY    67  64  90 E15G22    29.85F
$$

ARZ022-023-033-042-044-280300-
CENTRAL ARKANSAS

CITY           SKY/WX    TMP DP  RH WIND       PRES   REMARKS
LITTLE ROCK    PTCLDY    80  77  90 S7        29.78R HX  87
N LITTLE ROCK    N/A     82  76  82 SW7       29.77S HX  88
JACKSONVILLE   CLOUDY    83  76  81 SE3       29.78R HX  91
CONWAY           N/A     84  75  74 S8        29.75S HX  92
SEARCY         CLOUDY    82  76  81 S8        29.80R HX  89
HOT SPRINGS    CLOUDY    83  76  79 SW6       29.79R HX  91
RUSSELLVILLE   CLOUDY    83  73  72 S3        29.74F HX  89
CLINTON        FAIR      81  75  83 SE5       29.76F HX  86
$$

ARZ036-280300-
EAST ARKANSAS

CITY           SKY/WX    TMP DP  RH WIND       PRES   REMARKS
WEST MEMPHIS   MOCLDY    83  74  74 S8        29.81R HX  89
$$

ARZ050-053-066-070-073-280300-
SOUTHWEST ARKANSAS

CITY           SKY/WX    TMP DP  RH WIND       PRES   REMARKS
ARKADELPHIA    FAIR      81  76  84 S5        29.78F HX  87
CAMDEN         MOCLDY    81  73  78 S5        29.78F HX  85
TEXARKANA      CLOUDY    82  77  84 S8        29.79F HX  90
EL DORADO      CLEAR     81  75  82 S8        29.81F HX  87
DE QUEEN       CLOUDY    82  77  84 SW3       29.76F HAZE    HX  90
$$

ARZ056-057-069-280300-
SOUTHEAST ARKANSAS

CITY           SKY/WX    TMP DP  RH WIND       PRES   REMARKS
PINE BLUFF     CLEAR     80  74  81 S5        29.80R HX  85
STUTTGART      CLEAR     82  66  57 S9        29.80S HX  85
MONTICELLO     CLEAR     82  75  79 S6        29.80F HX  89

$$






USA.gov is the U.S. government's official web portal to all federal, state and local government web resources and services.